Location: Vancouver
(49.2500°N, 123.1330°W)
Time: 09:39:59
(UTC-07:00)

Cosmos 2333 Rocket - Visible Passes

Search period start: 02 September 2014 00:00
Search period end: 12 September 2014 00:00
Orbit: 837 x 864 km, 70.9° (Epoch: 02 September)

Date Brightness Start Highest point End Pass type
(mag) Time Alt. Az. Time Alt. Az. Time Alt. Az.
03 Sep 4.2 05:52:54 10° SSE 05:57:52 31° ESE 06:02:52 10° NE visible
04 Sep 4.1 05:40:37 10° SSE 05:45:34 31° ESE 05:50:35 10° NE visible
05 Sep 4.1 05:28:19 10° SSE 05:33:17 31° ESE 05:38:17 10° NE visible
06 Sep 4.0 05:16:02 10° SSE 05:21:00 31° ESE 05:26:00 10° NE visible
07 Sep 3.9 05:03:45 10° SSE 05:08:43 31° ESE 05:13:43 10° NE visible
08 Sep 3.9 04:51:27 10° SSE 04:56:25 31° ESE 05:01:25 10° NE visible
09 Sep 3.8 04:39:10 10° SSE 04:44:08 31° ESE 04:49:08 10° NE visible
10 Sep 3.8 04:26:53 10° SSE 04:31:51 31° ESE 04:36:51 10° NE visible
11 Sep 3.8 04:15:06 12° SSE 04:19:34 31° ESE 04:24:34 10° NE visible
11 Sep 2.5 05:57:59 10° SW 06:03:36 52° NW 06:09:15 10° NNE visible
